Weather History for Buffalo, WY

Change the Weather History Date:

Friday, November 16, 2012

  Actual Average Record
Temperature  
Mean Temperature 38 °F 34 °F  
Max Temperature 46 °F 45 °F 68 °F (1975)
Min Temperature 30 °F 23 °F 0 °F (2000)
Degree Days  
Heating Degree Days 27 31  
Month to date heating degree days 442  
Since 1 July heating degree days 1348  
Cooling Degree Days 0 0  
Month to date cooling degree days 0  
Year to date cooling degree days 492  
Moisture  
Dew Point 20 °F    
Average Humidity 44    
Maximum Humidity 58    
Minimum Humidity 32    
Precipitation  
Precipitation 0.00 in 0.02 in 0.02 in (2010)
Month to date precipitation 0.28  
Year to date precipitation 12.79  
Sea Level Pressure  
Sea Level Pressure 30.01 in    
Wind  
Wind Speed 5 mph (WNW)    
Max Wind Speed 14 mph    
Max Gust Speed 23 mph    
Visibility 10 miles    
Events      
T = Trace of Precipitation, MM = Missing Value Source: NWS Daily Summary

Daily Weather History Graph

Daily Weather History Graph

Search for Another Location

Airport:

Trip Planner

Search our weather history database for the weather conditions in past years. The results will help you decide how hot, cold, wet, or windy it might be!

Date:

Astronomy

Nov. 16, 2012 Rise Set
Actual Time 7:04 AM MST 4:38 PM MST
Civil Twilight 6:33 AM MST 5:09 PM MST
Nautical Twilight 5:58 AM MST 5:44 PM MST
Astronomical Twilight 5:23 AM MST 6:19 PM MST
Moon 10:03 AM MST 7:39 PM MST
Length of Visible Light 10h 36m
Length of Day
9h 33m
Waxing Crescent, 12% of the Moon is Illuminated
Nov 16
Waxing Crescent
Nov 20
First Quarter
Nov 28
Full
Dec 6
Last Quarter
Dec 13
New

Hourly Weather History & Observations

Time (MST) Temp. Windchill Dew Point Humidity Pressure Visibility Wind Dir Wind Speed Gust Speed Precip Events Conditions
12:53 AM 33.1 °F 27.7 °F 10.9 °F 40% 30.10 in 10.0 mi WSW 5.8 mph - N/A   Clear
1:53 AM 34.0 °F 27.2 °F 10.0 °F 37% 30.07 in 10.0 mi WSW 8.1 mph - N/A   Clear
2:53 AM 30.9 °F - 9.0 °F 40% 30.07 in 10.0 mi Calm Calm - N/A   Clear
3:53 AM 33.1 °F 27.7 °F 10.0 °F 38% 30.06 in 10.0 mi South 5.8 mph - N/A   Clear
4:53 AM 32.0 °F 26.4 °F 10.9 °F 42% 30.09 in 10.0 mi West 5.8 mph - N/A   Clear
5:53 AM 35.1 °F 32.2 °F 12.9 °F 40% 30.08 in 10.0 mi West 3.5 mph - N/A   Clear
6:53 AM 34.0 °F - 15.1 °F 46% 30.06 in 10.0 mi Calm Calm - N/A   Clear
7:53 AM 42.1 °F - 21.0 °F 43% 30.05 in 10.0 mi Calm Calm - N/A   Clear
8:53 AM 45.0 °F 43.5 °F 18.0 °F 34% 30.04 in 10.0 mi South 3.5 mph - N/A   Clear
9:53 AM 46.9 °F - 18.0 °F 32% 30.03 in 10.0 mi Calm Calm - N/A   Unknown
10:53 AM 43.0 °F 40.3 °F 26.1 °F 51% 30.03 in 10.0 mi NNW 4.6 mph - N/A   Unknown
11:53 AM 46.0 °F 42.5 °F 24.1 °F 42% 30.00 in 10.0 mi WSW 6.9 mph - N/A   Unknown
12:53 PM 41.0 °F 38.0 °F 24.1 °F 51% 30.01 in 10.0 mi SSE 4.6 mph - N/A   Unknown
1:53 PM 46.0 °F - 24.1 °F 42% 29.96 in 10.0 mi Calm Calm - N/A   Unknown
2:53 PM 44.1 °F 42.5 °F 25.0 °F 47% 29.98 in 10.0 mi NW 3.5 mph - N/A   Unknown
3:53 PM 43.0 °F - 26.1 °F 51% 29.99 in 10.0 mi Calm Calm - N/A   Unknown
4:53 PM 43.0 °F - 21.9 °F 43% 29.97 in 10.0 mi Calm Calm - N/A   Unknown
5:53 PM 41.0 °F 37.1 °F 26.1 °F 55% 29.96 in 10.0 mi NNE 5.8 mph - N/A   Unknown
6:53 PM 39.9 °F 35.1 °F 26.1 °F 58% 29.97 in 10.0 mi NW 6.9 mph - N/A   Unknown
7:53 PM 42.1 °F 34.9 °F 23.0 °F 47% 29.93 in 10.0 mi WNW 13.8 mph - N/A   Unknown
8:53 PM 41.0 °F 33.5 °F 24.1 °F 51% 29.93 in 10.0 mi NNW 13.8 mph 23.0 mph N/A   Unknown
9:53 PM 42.1 °F 36.6 °F 21.9 °F 45% 29.94 in 10.0 mi NW 9.2 mph - N/A   Unknown
10:53 PM 43.0 °F 36.4 °F 21.9 °F 43% 29.96 in 10.0 mi NW 12.7 mph - N/A   Unknown
11:53 PM 42.1 °F 36.1 °F 21.9 °F 45% 29.97 in 10.0 mi WNW 10.4 mph - N/A   Unknown